sat.trackr.live / text

‹ back to catalog

STARLINK-35312

NORAD 65866 · 2025-223N

PAYLOAD ACTIVE UNKNOWN

§ Identity

Operator
Country
US
Launch date
2025-10-03
Launch site
AFWTR
Launch vehicle
Mass (kg)
RCS (m²)

Purposes: comms

External: N2YO · Heavens-Above · Gunter

§ Orbital elements

Epoch: 2026-05-25T03:29:58.054848Z

Period
93.85 min
Inclination
53.1597°
Eccentricity
0.0001342
Mean motion
15.34407903 rev/d
Perigee alt
461.8 km
Apogee alt
463.6 km
Semi-major
6,840.8 km
B*
9.1636e-4
RAAN
298.8852°
Arg perigee
86.1529°
Mean anomaly
273.9627°
Rev number
3,591

§ Raw data

STARLINK-353121 65866U 25223N   26145.14581082  .00030719  00000+0  91636-3 0  99992 65866  53.1597 298.8852 0001342  86.1529 273.9627 15.34407903 35916

JSON: /api/v1/satellites/65866 · /tle

For live sub-satellite position, see the globe view (requires WebGL).

§ Visibility from observer

Set your observer location to see the next 7 days of passes ≥ 10°. The values pass through the URL so the page stays shareable.

No JS? Fill the form by hand. The geolocation button needs JavaScript.